Regional Weather Roundup
Issued by NWS Wilmington, NC

Home | Current Version | Previous Version | Text Only | Print | Product List | Glossary On
Versions: 1 2 3 4 5 6 7 8 9 10 11 12 13 14 15 16 17 18 19 20 21 22 23 24 25 26 27 28 29 30 31 32 33 34 35 36 37 38 39 40 41 42 43 44 45 46 47 48 49 50
000
ASUS42 KILM 311810
RWRILM
RWRILM
REGIONAL HOURLY WEATHER ROUNDUP
NATIONAL WEATHER SERVICE WILMINGTON NC
100 PM EST SAT JAN 31 2015

NOTE: "FAIR" INDICATES FEW OR NO CLOUDS BELOW 12,000 FEET WITH NO
SIGNIFICANT WEATHER AND/OR OBSTRUCTIONS TO VISIBILITY.

...............WFO WILMINGTON COUNTY WARNING AREA...............

......COASTAL NC AND SC COUNTIES......

CITY           SKY/WX    TMP DP  RH WIND       PRES   REMARKS
WILMINGTON     SUNNY     46   9  22 N8        30.36F
SOUTHPORT      SUNNY     45   7  21 N8        30.36F
N MYRTLE BEACH SUNNY     48   7  18 N12       30.36F
MYRTLE BEACH   SUNNY     48   7  18 N10       30.39F

......INLAND NC AND SC COUNTIES.......

CITY           SKY/WX    TMP DP  RH WIND       PRES   REMARKS
LUMBERTON      SUNNY     49   6  17 N7        30.35F
ELIZABETHTOWN  SUNNY     45   3  17 NW6       30.36F
WHITEVILLE     SUNNY     46   4  17 N5        30.36F
FLORENCE       SUNNY     48   8  19 VRB5      30.37F
DARLINGTON     SUNNY     48  10  21 N5        30.38F

....................REST OF NORTH CAROLINA......................

.........EASTERN NC.........

CITY           SKY/WX    TMP DP  RH WIND       PRES   REMARKS
CAPE HATTERAS  SUNNY     37  15  40 N9G16     30.31F WCI  30
JACKSONVILLE   SUNNY     43  10  26 NW7       30.36F
MOREHEAD CITY  SUNNY     43  12  28 NW12      30.34F
KENANSVILLE    SUNNY     42   6  22 NW6       30.36F
NEW BERN       SUNNY     44   7  21 N7        30.35F
ELIZABETH CITY SUNNY     38   8  29 NW13G22   30.31F WCI  30

.........CENTRAL NC.........

CITY           SKY/WX    TMP DP  RH WIND       PRES   REMARKS
RALEIGH DURHAM MOSUNNY   43   1  17 VRB6      30.34F
ROCKY MOUNT    SUNNY     43   5  20 NW10      30.34F
ROANOKE RAPIDS NOT AVBL
FAYETTEVILLE   SUNNY     47   1  15 NW7       30.35F
HOFFMAN        SUNNY     49   2  14 N8G16     30.35F

.........WESTERN NC.........

CITY           SKY/WX    TMP DP  RH WIND       PRES   REMARKS
CHARLOTTE      PTSUNNY   48   5  17 SW3       30.34F
GREENSBORO     MOSUNNY   43   2  18 VRB3      30.31F
HICKORY        NOT AVBL
BOONE          NOT AVBL
ASHEVILLE      NOT AVBL

.....................REST OF SOUTH CAROLINA.....................

.........EASTERN SC.........

CITY           SKY/WX    TMP DP  RH WIND       PRES   REMARKS
CHARLESTON     MOSUNNY   52   7  16 N7        30.38F
BEAUFORT MCAS  SUNNY     50  16  25 VRB3      30.40F
HILTON HEAD    MOSUNNY  N/A N/A N/A NE8       30.41S

.........CENTRAL SC.........

CITY           SKY/WX    TMP DP  RH WIND       PRES   REMARKS
COLUMBIA       PTSUNNY   50  14  23 VRB3      30.37F
ORANGEBURG     SUNNY     49  12  22 VRB3      30.37F
SUMTER SHAW    SUNNY     49  10  20 E2        30.35F

.........WESTERN SC.........

CITY           SKY/WX    TMP DP  RH WIND       PRES   REMARKS
GREENVILLE     NOT AVBL
ROCK HILL      MOSUNNY   45  11  25 CALM      30.35F
ANDERSON       MOSUNNY   46  18  32 W7        30.36F
CLEMSON        NOT AVBL
GREENWOOD      LGT RAIN  49  15  25 VRB6      30.37F


...................COASTAL AND OFFSHORE REPORTS..................

................LOCAL PIERS AND NC RESERVE................


STATION/POSITION TIME  SKY/WX   TEMP    WIND        PRES    VSBY
                                AIR SEA DIR/SP/G
                 (UTC)          (F)     (DEG/KT/KT) (MB)    (MI)
JOHNY MRCER PIER 1800            42 52  330/  9/ 10 1027.3F
NC RESRV MASNBRO 1700            44      10/  3     1029.0S
OCEAN CREST PIER 1700            40 51  330/  7/  9 1028.0F
SPRINGMAID  PIER 1800            45 49  360/  7/ 11 1028.4F


................COASTAL AND OFFSHORE BUOYS................


STATION/POSITION TIME  SKY/WX   TEMP    WIND        PRES    VSBY
                                AIR SEA DIR/SP/G
                 (UTC)          (F)     (DEG/KT/KT) (MB)    (MI)
DIMNDSHOAL 41025 1800            35 59  340/ 21/ 27 1025.9F
WVE H/P(F/S)=  7/ 8 WND WVE H/P(F/S)=  7/ 8 SWL H/P/D(F/S/D)=  3/ 40/10

CAPE LOOKOUT     1700            37     340/ 12/ 14 1027.6F
ONSLOW BAY 41036 NOT AVBL
5 WRITEBCH 41038 1700            40 51   10/  8/ 10 1028.5F
MASONBORO  41110 1800               51                N/A
WVE H/P(F/S)=  2/ 9 WND WVE H/P(F/S)=  2/ 9

WILM HARBR 41108 1800               53                N/A
WVE H/P(F/S)=  2/11 WND WVE H/P(F/S)=  2/10

27WRITEBCH 41037 NOT AVBL
FRYING PAN 41013 1800            40 62   10/ 14/ 17 1028.9F
WVE H/P(F/S)=  5/10 WND WVE H/P(F/S)=  3/ 6 SWL H/P/D(F/S/D)=  3/ 70/10

SUNST NRSH 41024 1700            44     350/  8/ 10   N/A
CAPRS NRSH 41029 1700            44      80/ 10/ 12   N/A
EDISTO     41004 1800            46 67   20/ 12/ 16 1028.2F
WVE H/P(F/S)=  5/ 7 WND WVE H/P(F/S)=  3/ 5 SWL H/P/D(F/S/D)=  3/ 7



..........OFFSHORE BUOYS BEYOND 100 NM OFFSHORE...........
.....IN A TRIANGLE---HAT TO BERMUDA TO BAHAMAS TO HAT.....


STATION/POSITION TIME  SKY/WX   TEMP    WIND        PRES    VSBY
                                AIR SEA DIR/SP/G
                 (UTC)          (F)     (DEG/KT/KT) (MB)    (MI)
150E HAT   41001 NOT AVBL
W BERMUDA  41048 1750            56 71  300/ 29/ 37 1016.4F
WVE H/P(F/S)= 17/12 WND WVE H/P(F/S)= 13/ 8 SWL H/P/D(F/S/D)= 11/320/12

ATLANTIC S 41049 1750            73 74  260/ 19/ 29 1013.5F
WVE H/P(F/S)=  7/ 9 WND WVE H/P(F/S)=  5/ 6 SWL H/P/D(F/S/D)=  5/ 40/ 9

E BAHAMAS  41046 1709            74 78  310/  8/ 12 1018.0F
WVE H/P(F/S)=  5/ 9 WND WVE H/P(F/S)=  2/ 4 SWL H/P/D(F/S/D)=  5/ 50/ 9

NE BAHAMAS 41047 1747            66 75  340/ 21/ 25 1020.2F
WVE H/P(F/S)=  8/10 WND WVE H/P(F/S)=  7/ 8 SWL H/P/D(F/S/D)=  5/340/10

120E CANVRL41010 1800            63 74   20/ 14/ 19 1025.3F
WVE H/P(F/S)=  6/ 8 WND WVE H/P(F/S)=  3/ 5 SWL H/P/D(F/S/D)=  5/360/ 8


END


USA.gov is the U.S. government's official web portal to all federal, state and local government web resources and services.